Location: La Pernelle
(49.6188°N, 1.2999°W)
Time: 13:06:14
(UTC+00:00)

ERS-1 Rocket - Pass Details

Date: 12 June 2021
Orbit: 752 x 758 km, 98.4° (Epoch: 30 July)

Event Time Altitude Azimuth Distance (km) Brightness Sun altitude
Exits shadow 22:25:10 11° 200° (SSW) 2,238 5.0 -13.9°
Maximum altitude 22:29:36 34° 264° (W) 1,233 4.2 -14.1°
Drops below altitude 10° 22:34:12 10° 329° (NNW) 2,300 6.9 -14.4°
Sets 22:36:43 0° 339° (NNW) 3,231 8.2 -14.6°
